SL-14 DEB

Satellite information

Favourite Embed

Satellite Type and Status

DEBRISIN ORBIT

Key statistics

Satellite SL-14 DEB at a glance.

Uptime

12310

Days in orbit

Revolutions

≈ 15.3

Per day

Orbit

LEO

Low Earth Orbit

Inclination

82.4

Latest

Satellite identification and parameters

Extended collection of information and parameters for SL-14 DEB.

Object identification

Identified? True

Debris? True

Object name: SL-14 DEB

International designator: 1991-086F

Object number (NORAD): 21905

Object ID (CCSDS): 21905

Country: COMMONWEALTH OF INDEPENDENT STATES (CIS)

Current information (Y/N): Y

RCS size: SMALL

Orbital parameters

Period: 94.336 minutes

Inclination: 82.4132 deg

SMA: 6864.56 km

Apoapsis: 621.18 km

Periapsis: 351.67 km

RAAN: 105.2476 deg

Eccentricy: 0.01963051

Argument of periapsis: 70.2926 deg

Mean anomaly: 291.9371 deg

Mean motion: 15.26453861 rev/day

Mean motion (dot): 0.00211061 rev/day2

B* drag term: 0.0044897222 1/REarth

Two-line elements (TLE)

Creation date: Aug. 31, 2025, 2:26 a.m.

Reference frame: TEME

Reference center: EARTH

Epoch: Aug. 30, 2025, 4 p.m. UTC

TLE line 0: 0 SL-14 DEB

TLE line 1: 1 21905U 91086F 25242.66713156 .00211061 00000-0 44897-2 0 9996

TLE line 2: 2 21905 82.4132 105.2476 0196305 70.2926 291.9371 15.26453861597727

Live tracking on map

Real-time ground track for satellite SL-14 DEB.

In-orbit conjunctions

A list of the most updated potential collisions computed for object SL-14 DEB.

Target Orbit TCA Probability of collision Miss distance Type
COSMOS 1536 LEO 2025-02-27 15:57:06 0.0008461482 190.0 (m) PAYLOAD
THORAD AGENA D DEB SSO 2024-11-17 10:22:52 0.0005173755 916.0 (m) DEBRIS

Associated space launch

Scientific satellite dedicated to the ionosphere and magnetosphere

SL-14 DEB was lifted into orbit during the mission ‘Tsiklon-3 | AUOS-Z-AP-IK 1’, on board a Tsiklon-3 space rocket.

The launch took place on Dec. 18, 1991, 3:54 a.m. from 32/2.

For more information about the launch, click the button.

Launch to space Tsiklon-3 | AUOS-Z-AP-IK 1
Tsiklon-3 | AUOS-Z-AP-IK 1

Agency: N/A

Status: Launch Successful

Launch date: Dec. 18, 1991, 3:54 a.m. UTC

Rocket: Tsiklon-3

Launch pad: 32/2

Location: Plesetsk Cosmodrome, Russian Federation

...

Latest news about this satellite

There are no fresh news available about this satellite. Check back as we update our databases every day.


Newsletter sign-up

Weekly statistics, charts and insights to help you stay on top of the space industry.